Starlink 4331

operational
NORAD ID: 53046 Int'l Des: 2022-077 Owner: SPXS Country: US Constellation: starlink
LEOCIRCULARRETROGRADESSO

About Starlink 4331

Description loading...

Live Position

Loading 3D Globe...

Upcoming Passes

Altitude History

Altitude vs Time

uPlot chart will show altitude changes over time

Two-Line Element Set

1 53046U 22077D 26067.09522993 -.00000278 00000-0 -15084-4 0 9997
2 53046 97.6026 249.7474 0001880 89.6136 270.5306 15.05644724200752
Epoch: Mar 8, 2026 • Age: 17 hours

Current Status

Altitude 555.0 km
Velocity 7.58 km/s
Sub-Earth Point -11.62°S, 163.33°W
Launch Date Jul 11, 2022
Age 3.6 years
Type internet

Technical Details

Classification Payload
Mass 297.00 kg
Dry Mass 275.00 kg
Total Mass 297.00 kg
Length 0.20 m
Diameter 2.80 m
Span 9.00 m
Shape Box + pan
Manufacturer SPXS
Bus Type Starlink
Phase Status In Orbit
Owner/State SPXS/US

Large Constellations

Loading constellations...